[[{"header":{"parameterUnit":"m.s-1","parameterCategory":1,"la1":30.2991,"la2":30.254,"lo1":-89.0895,"lo2":-89.0444,"dy":0.0017,"dx":0.0017,"nx":28,"ny":28,"refTime":"2024-05-22T21:00:00:Z","depth":0,"parameterNumber":2,"parameterNumberName":"U-component_of_WINDS"},"data":[0,0,0,0,0,0,0,0,0,0,0,0,0,0,0,0,0,0,0,0,0,0,0,0,0,0,0,0,0,0,0,0,0,0,0,0,0,0,0,0,0,0,0,0,0,0,0,0,0,0,0,0,0,0,0,0,0,0,-1.7964,-1.7964,0,-1.7957,-1.7956,-1.7956,-1.7942,-1.7942,-1.7941,-1.7941,-1.7933,-1.7933,-1.7933,0,0,0,0,0,0,0,0,0,0,0,0,0,-1.7966,-1.7966,-1.7964,-1.7964,-1.7964,-1.7957,-1.7956,-1.7956,-1.7942,-1.7942,-1.7941,-1.7941,-1.7933,-1.7933,-1.7933,0,0,0,0,0,0,0,0,0,0,0,0,0,-1.7962,-1.7966,-1.7964,-1.7956,-1.7955,-1.7957,-1.7956,-1.7956,-1.7942,-1.7942,-1.7941,-1.7941,-1.7933,-1.7933,-1.7933,-1.7942,0,0,-1.7933,-1.7933,0,0,0,0,0,0,0,0,-1.7963,-1.7962,-1.7957,-1.7956,-1.7955,-1.795,-1.7954,-1.7951,-1.7942,-1.7947,-1.7941,-1.7941,-1.7939,-1.7938,-1.7938,-1.7941,-1.7941,-1.7933,-1.7933,-1.7933,-1.7933,0,0,0,0,0,0,0,-1.7963,-1.7962,-1.7961,-1.7957,-1.7956,-1.7952,-1.7952,-1.7953,-1.7945,-1.7947,-1.7945,-1.7945,-1.7938,-1.7938,-1.7938,-1.7941,-1.7933,-1.7933,-1.7933,-1.7933,-1.7952,-1.7952,0,0,0,0,0,0,-1.7964,-1.7963,-1.7961,-1.7961,-1.7958,-1.7953,-1.7952,-1.7952,-1.7945,-1.7944,-1.7945,-1.7944,-1.7938,-1.7938,-1.7937,-1.7947,-1.7933,-1.7933,-1.7933,-1.7951,-1.7952,-1.7952,0,0,0,0,0,0,-1.7964,-1.7964,-1.7962,-1.7962,-1.7961,-1.7953,-1.7954,-1.7952,-1.7952,-1.7944,-1.7943,-1.7946,-1.7938,-1.7937,-1.7941,-1.7946,-1.7933,-1.7933,-1.7951,-1.7951,-1.7952,-1.7966,0,0,0,0,0,0,-1.7964,-1.7964,-1.7968,-1.7962,-1.7961,-1.7965,-1.7954,-1.7952,-1.7952,-1.795,-1.7945,-1.7943,-1.7937,-1.7941,-1.7941,-1.7946,-1.7934,-1.795,-1.7951,-1.7952,-1.7965,-1.7967,-1.7969,0,0,0,0,0,-1.7965,-1.7972,-1.7968,-1.7968,-1.7965,-1.7966,-1.7965,-1.7958,-1.7952,-1.7955,-1.7951,-1.7944,-1.7946,-1.7941,-1.7941,-1.7947,-1.795,-1.7951,-1.7952,-1.7964,-1.7967,-1.7969,0,0,0,0,0,0,-1.7978,-1.7971,-1.7966,-1.7972,-1.797,-1.7963,-1.7967,-1.7961,-1.796,-1.7959,-1.795,-1.7949,-1.7954,-1.7951,-1.7946,-1.7955,-1.7947,-1.7948,-1.7956,-1.7959,-1.7961,-1.7961,-1.7934,0,0,0,0,0,-1.7982,-1.7983,-1.7977,-1.7982,-1.7981,-1.7974,-1.7975,-1.7969,-1.7966,-1.7965,-1.7961,-1.7958,-1.7958,-1.7959,-1.7958,-1.7965,-1.7964,-1.7969,-1.7971,-1.7973,-1.7973,-1.7977,-1.7979,-1.7955,-1.7955,-1.7955,0,0,-1.7989,-1.7985,-1.7987,-1.7985,-1.7982,-1.7984,-1.7974,-1.7976,-1.7977,-1.7966,-1.7969,-1.7966,-1.7962,-1.7967,-1.7969,-1.7965,-1.798,-1.7974,-1.7975,-1.7975,-1.7978,-1.798,-1.7982,-1.7956,-1.7956,-1.7956,0,0,-1.8003,-1.8001,-1.8005,-1.8003,-1.8,-1.7995,-1.7996,-1.7991,-1.7989,-1.7992,-1.7984,-1.7985,-1.7985,-1.7983,-1.7982,-1.7997,-1.799,-1.7997,-1.8007,-1.801,-1.8012,-1.8013,-1.8018,-1.802,-1.7998,-1.7998,-1.7998,0,-1.8013,-1.8015,-1.8008,-1.8011,-1.801,-1.8001,-1.8005,-1.8003,-1.8,-1.8,-1.7995,-1.7996,-1.7993,-1.7997,-1.8001,-1.8001,-1.8001,-1.7997,-1.8012,-1.8014,-1.8015,-1.8019,-1.8021,-1.7999,-1.7999,-1.7999,-1.7998,0,-1.8027,-1.8028,-1.8032,-1.8029,-1.8029,-1.8033,-1.8026,-1.8027,-1.8022,-1.8018,-1.8022,-1.8018,-1.8017,-1.8018,-1.8013,-1.8022,-1.8019,-1.8014,-1.8005,-1.8018,-1.8022,-1.8024,-1.8,-1.8,-1.7999,-1.7999,0,0,-1.8048,-1.8042,-1.8043,-1.8042,-1.8038,-1.8039,-1.8042,-1.8042,-1.8042,-1.8041,-1.8043,-1.8044,-1.8039,-1.8038,-1.8033,-1.8036,-1.8047,-1.803,-1.8029,-1.8032,-1.8056,-1.806,-1.8062,-1.8043,-1.8043,-1.8044,-1.8056,0,-1.806,-1.8065,-1.806,-1.8066,-1.8067,-1.8059,-1.8061,-1.8059,-1.8056,-1.8057,-1.8053,-1.8054,-1.8047,-1.8046,-1.8049,-1.8045,-1.8051,-1.8044,-1.8045,-1.8045,-1.8045,-1.8064,-1.8068,-1.8079,-1.8058,-1.8058,-1.8058,0,-1.8076,-1.8075,-1.8081,-1.8077,-1.8077,-1.808,-1.8079,-1.808,-1.8077,-1.8075,-1.8074,-1.8068,-1.8071,-1.8064,-1.8067,-1.8063,-1.8063,-1.8061,-1.8061,-1.806,-1.8051,-1.8062,-1.8083,-1.8085,-1.806,-1.806,-1.806,0,-1.809,-1.809,-1.8094,-1.8093,-1.8089,-1.8091,-1.8089,-1.8086,-1.8086,-1.8086,-1.8085,-1.8085,-1.8085,-1.8084,-1.8079,-1.8074,-1.8083,-1.8075,-1.8081,-1.8081,-1.8082,-1.8082,-1.8102,-1.8084,-1.8084,-1.8083,-1.8083,0,-1.8104,-1.8108,-1.81,-1.8103,-1.8107,-1.8101,-1.8105,-1.8102,-1.81,-1.8102,-1.8095,-1.8097,-1.809,-1.8091,-1.8086,-1.809,-1.809,-1.8088,-1.8086,-1.8088,-1.8088,-1.8087,-1.8085,-1.8084,-1.8084,-1.8084,-1.8084,0,-1.812,-1.8115,-1.8119,-1.8114,-1.8113,-1.8117,-1.8113,-1.8115,-1.8111,-1.8113,-1.8114,-1.8108,-1.8109,-1.8104,-1.8104,-1.8101,-1.8106,-1.8104,-1.8107,-1.8106,-1.8111,-1.811,-1.813,-1.8133,-1.8114,-1.8114,-1.8114,0,-1.8129,-1.8131,-1.8128,-1.8128,-1.8127,-1.8128,-1.8128,-1.8122,-1.8123,-1.812,-1.8123,-1.8123,-1.8123,-1.8124,-1.812,-1.812,-1.8117,-1.8124,-1.8117,-1.8118,-1.8116,-1.8116,-1.8116,-1.8126,-1.8126,-1.8126,-1.8126,0,-1.8145,-1.8142,-1.8143,-1.8142,-1.8143,-1.8142,-1.8141,-1.8142,-1.8136,-1.8136,-1.8137,-1.8137,-1.8137,-1.8137,-1.8137,-1.8135,-1.8129,-1.8129,-1.813,-1.8131,-1.8132,-1.8131,-1.811,-1.8128,-1.8128,-1.8128,-1.8128,-1.8127,-1.8157,-1.8159,-1.8157,-1.8157,-1.8156,-1.8155,-1.8157,-1.8154,-1.8155,-1.8154,-1.8151,-1.8152,-1.815,-1.8148,-1.8147,-1.8148,-1.8145,-1.8146,-1.8147,-1.8147,-1.8148,-1.8133,-1.8148,-1.8148,-1.8148,-1.8148,-1.8148,0,-1.8172,-1.817,-1.8171,-1.817,-1.817,-1.8166,-1.8165,-1.8165,-1.8167,-1.8165,-1.8165,-1.8166,-1.8167,-1.8163,-1.8163,-1.8165,-1.8162,-1.8165,-1.8164,-1.8164,-1.8151,-1.815,-1.8167,-1.8167,-1.8167,-1.8167,-1.8167,-1.8167,-1.818,-1.8183,-1.8181,-1.8183,-1.8182,-1.8183,-1.8183,-1.8182,-1.8181,-1.8182,-1.8182,-1.818,-1.8178,-1.8178,-1.8178,-1.8177,-1.8177,-1.818,-1.8178,-1.8166,-1.8164,-1.8163,-1.8161,-1.818,-1.818,-1.819,-1.819,-1.8191]},{"header":{"parameterUnit":"m.s-1","parameterCategory":1,"la1":30.2991,"la2":30.254,"lo1":-89.0895,"lo2":-89.0444,"dy":0.0017,"dx":0.0017,"nx":28,"ny":28,"refTime":"2024-05-22T21:00:00:Z","depth":0,"parameterNumber":3,"parameterNumberName":"V-component_of_WINDS"},"data":[0,0,0,0,0,0,0,0,0,0,0,0,0,0,0,0,0,0,0,0,0,0,0,0,0,0,0,0,0,0,0,0,0,0,0,0,0,0,0,0,0,0,0,0,0,0,0,0,0,0,0,0,0,0,0,0,0,0,4.0052,4.0052,0,4.0055,4.0055,4.0055,4.0025,4.0024,4.0023,4.0022,4.0025,4.0026,4.0026,0,0,0,0,0,0,0,0,0,0,0,0,0,4.002,4.0021,4.0052,4.0052,4.0052,4.0054,4.0055,4.0055,4.0025,4.0024,4.0023,4.0022,4.0025,4.0026,4.0027,0,0,0,0,0,0,0,0,0,0,0,0,0,4.0029,4.0021,4.0052,4.0037,4.0036,4.0054,4.0055,4.0055,4.0025,4.0024,4.0023,4.0022,4.0024,4.0025,4.0027,4.0059,0,0,4.003,4.0031,0,0,0,0,0,0,0,0,4.0029,4.0031,4.0039,4.0038,4.0037,4.0038,4.0044,4.0056,4.0026,4.0029,4.0022,4.0021,4.003,4.0031,4.0034,4.0059,4.0059,4.0031,4.0031,4.0032,4.0032,0,0,0,0,0,0,0,4.0028,4.003,4.0053,4.004,4.0038,4.0031,4.0031,4.0046,4.0037,4.0029,4.0027,4.0028,4.0029,4.0033,4.0034,4.0059,4.0031,4.0032,4.0032,4.0033,4.011,4.0111,0,0,0,0,0,0,4.003,4.003,4.0053,4.0053,4.003,4.0032,4.0032,4.0039,4.0036,4.0035,4.0029,4.0026,4.0031,4.0033,4.0034,4.0071,4.0032,4.0033,4.0034,4.0109,4.011,4.0112,0,0,0,0,0,0,4.0029,4.0032,4.0052,4.0041,4.0043,4.0034,4.0042,4.004,4.0043,4.0036,4.0034,4.0034,4.0031,4.0032,4.0053,4.0071,4.0034,4.0035,4.0107,4.0109,4.0111,4.0145,0,0,0,0,0,0,4.0028,4.0032,4.0044,4.0041,4.0044,4.0072,4.0043,4.0041,4.0046,4.0042,4.0041,4.0039,4.003,4.0051,4.0054,4.0072,4.0036,4.0106,4.0108,4.011,4.0143,4.0148,4.0153,0,0,0,0,0,4.0027,4.0054,4.0045,4.0048,4.0059,4.0073,4.0074,4.0062,4.0047,4.0059,4.0055,4.0039,4.0068,4.0053,4.0057,4.0075,4.0104,4.0107,4.011,4.014,4.0147,4.0153,0,0,0,0,0,0,4.0058,4.0053,4.0043,4.0069,4.0072,4.0068,4.0082,4.007,4.0077,4.0073,4.0059,4.0059,4.0082,4.008,4.0064,4.0106,4.0084,4.0087,4.0105,4.0112,4.0117,4.0117,4.0037,0,0,0,0,0,4.0068,4.008,4.0075,4.0099,4.01,4.0091,4.0097,4.0088,4.009,4.009,4.0087,4.009,4.0099,4.0106,4.0114,4.0143,4.0142,4.0157,4.0162,4.0166,4.0169,4.0184,4.0191,4.0121,4.0121,4.0121,0,0,4.0089,4.0087,4.0096,4.0105,4.0105,4.0118,4.0092,4.0107,4.0116,4.0093,4.0112,4.011,4.0111,4.0136,4.0147,4.0135,4.0189,4.017,4.0174,4.0174,4.0188,4.0194,4.02,4.0123,4.0123,4.0123,0,0,4.0133,4.0133,4.0152,4.0154,4.0156,4.0149,4.0154,4.0152,4.015,4.0169,4.0152,4.0163,4.0179,4.0181,4.0184,4.0229,4.0215,4.0232,4.0259,4.0274,4.0279,4.0284,4.0299,4.0305,4.0235,4.0236,4.0236,0,4.0158,4.0176,4.0164,4.018,4.0184,4.0164,4.0184,4.0186,4.019,4.0193,4.0181,4.0201,4.0201,4.0226,4.0237,4.024,4.0245,4.0232,4.028,4.0284,4.0288,4.0303,4.0309,4.0238,4.0237,4.0237,4.0237,0,4.0207,4.022,4.0235,4.024,4.0246,4.0264,4.0254,4.0262,4.0253,4.0248,4.0268,4.0267,4.0274,4.028,4.0271,4.0303,4.0296,4.0282,4.026,4.0297,4.0311,4.0316,4.024,4.024,4.0239,4.0239,0,0,4.0269,4.0268,4.0273,4.0275,4.0276,4.0286,4.0302,4.031,4.0317,4.0321,4.0334,4.0349,4.0336,4.0339,4.033,4.0343,4.0378,4.0327,4.0327,4.0336,4.0413,4.0424,4.043,4.037,4.0371,4.0371,4.0413,0,4.0311,4.034,4.0329,4.0358,4.037,4.0352,4.0366,4.0368,4.0364,4.0373,4.0369,4.038,4.0362,4.0364,4.0376,4.0372,4.0393,4.0368,4.0381,4.0382,4.0381,4.0437,4.0448,4.0487,4.0418,4.0419,4.042,0,4.0364,4.037,4.04,4.0399,4.0403,4.0416,4.0423,4.0432,4.0434,4.043,4.0434,4.0423,4.0439,4.0417,4.0439,4.0422,4.0427,4.0425,4.0427,4.0427,4.0402,4.0438,4.05,4.0505,4.0428,4.0427,4.0427,0,4.0406,4.0421,4.0441,4.0444,4.0443,4.0452,4.0452,4.0453,4.0458,4.0464,4.0467,4.0475,4.0479,4.0485,4.0475,4.046,4.0498,4.0476,4.0495,4.0495,4.0503,4.0503,4.0565,4.0508,4.0508,4.0507,4.0507,0,4.0453,4.0472,4.046,4.0472,4.0493,4.0481,4.0502,4.05,4.0501,4.0512,4.0497,4.0508,4.0495,4.0505,4.0498,4.0517,4.0519,4.0516,4.0514,4.0517,4.0517,4.0519,4.0516,4.0509,4.0509,4.0508,4.0508,0,4.0503,4.0496,4.0516,4.0514,4.0514,4.0529,4.0527,4.0538,4.0533,4.0548,4.055,4.0543,4.0554,4.0545,4.0556,4.0551,4.0576,4.057,4.0575,4.0573,4.0593,4.0591,4.0658,4.0667,4.0604,4.0605,4.0605,0,4.0533,4.0547,4.0547,4.0553,4.0554,4.0565,4.0571,4.056,4.0566,4.0569,4.058,4.059,4.0596,4.0614,4.061,4.0618,4.0612,4.0635,4.0613,4.0615,4.0611,4.061,4.0611,4.0639,4.064,4.064,4.0641,0,4.0588,4.0584,4.0592,4.06,4.0607,4.0612,4.0616,4.0622,4.0611,4.0619,4.063,4.0635,4.0646,4.0656,4.0662,4.0662,4.0649,4.0648,4.0653,4.0656,4.0658,4.0656,4.0587,4.0646,4.0646,4.0645,4.0645,4.0645,4.0628,4.064,4.0641,4.0651,4.0653,4.0658,4.0668,4.0665,4.0673,4.0681,4.0675,4.0688,4.0689,4.0696,4.0698,4.0708,4.0698,4.0705,4.0707,4.0708,4.0711,4.0657,4.0709,4.0709,4.0708,4.0708,4.0708,0,4.0681,4.0682,4.0691,4.0697,4.0705,4.0693,4.0697,4.0705,4.0716,4.0719,4.0726,4.0738,4.0748,4.0744,4.0752,4.0761,4.0755,4.0763,4.0762,4.0762,4.0719,4.0714,4.0767,4.0767,4.0767,4.0767,4.0767,4.0767,4.071,4.0729,4.0725,4.0745,4.0745,4.0757,4.0761,4.0764,4.0766,4.0781,4.0788,4.0786,4.0786,4.0794,4.0802,4.0801,4.0804,4.0814,4.0811,4.0771,4.0765,4.0759,4.0754,4.0815,4.0815,4.0852,4.0853,4.0853]}]]